Weather History for KLAL - October, 2012

Change the Weather History Date:

Tuesday, October 2, 2012

  Actual Average Record
Temperature  
Mean Temperature 78 °F -  
Max Temperature 84 °F 83 °F 90 °F (1986)
Min Temperature 73 °F 69 °F 55 °F (2011)
Cooling Degree Days 14    
Growing Degree Days 28 (Base 50)    
Moisture  
Dew Point 73 °F    
Average Humidity 90    
Maximum Humidity 100    
Minimum Humidity 66    
Precipitation  
Precipitation 0.00 in - - ()
Sea Level Pressure  
Sea Level Pressure 29.88 in    
Wind  
Wind Speed 7 mph (South)    
Max Wind Speed 12 mph    
Max Gust Speed 20 mph    
Visibility 10 miles    
Events Rain    
Averages and records for this station are not official NWS values.
T = Trace of Precipitation, MM = Missing Value Source: NWS Daily Summary

Daily Weather History Graph

Daily Weather History Graph

Search for Another Location

Airport or City:

Trip Planner

Search our weather history database for the weather conditions in past years. The results will help you decide how hot, cold, wet, or windy it might be!

Date:

Astronomy

Oct. 02, 2012 Rise Set
Actual Time 7:21 AM EDT 7:12 PM EDT
Civil Twilight 6:58 AM EDT 7:35 PM EDT
Nautical Twilight 6:31 AM EDT 8:02 PM EDT
Astronomical Twilight 6:03 AM EDT 8:30 PM EDT
Moon 8:42 PM EDT (10/2) 9:31 AM EDT (10/2)
Length of Visible Light 12h 37m
Length of Day
11h 50m
Waning Gibbous, 94% of the Moon is Illuminated
Oct 2
Waning Gibbous
Oct 8
Last Quarter
Oct 15
New
Oct 21
First Quarter
Oct 29
Full

Hourly Weather History & Observations

Time (EDT) Temp. Heat Index Dew Point Humidity Pressure Visibility Wind Dir Wind Speed Gust Speed Precip Events Conditions
12:15 AM 77.0 °F - 71.6 °F 83% 29.83 in 10.0 mi South 5.8 mph - N/A   Clear
12:35 AM 77.0 °F - 73.4 °F 89% 29.83 in 10.0 mi South 5.8 mph - N/A   Clear
12:55 AM 75.2 °F - 73.4 °F 94% 29.83 in 10.0 mi South 6.9 mph - N/A   Clear
1:15 AM 75.2 °F - 73.4 °F 94% 29.83 in 10.0 mi South 5.8 mph - N/A   Clear
1:35 AM 75.2 °F - 71.6 °F 89% 29.83 in 10.0 mi SSE 9.2 mph - N/A   Scattered Clouds
2:35 AM 75.2 °F - 73.4 °F 94% 29.83 in 10.0 mi South 11.5 mph - N/A Rain Light Rain
2:55 AM 73.4 °F - 73.4 °F 100% 29.83 in 10.0 mi SSE 9.2 mph - N/A Rain Light Rain
3:15 AM 73.4 °F - 71.6 °F 94% 29.83 in 10.0 mi South 8.1 mph - N/A   Mostly Cloudy
3:35 AM 73.4 °F - 71.6 °F 94% 29.83 in 10.0 mi South 8.1 mph - N/A   Clear
3:55 AM 73.4 °F - 71.6 °F 94% 29.83 in 10.0 mi SSE 8.1 mph - N/A   Scattered Clouds
4:15 AM 73.4 °F - 71.6 °F 94% 29.83 in 10.0 mi South 6.9 mph - N/A   Clear
4:35 AM 73.4 °F - 73.4 °F 100% 29.83 in 10.0 mi South 6.9 mph - N/A   Clear
4:55 AM 73.4 °F - 73.4 °F 100% 29.83 in 10.0 mi South 6.9 mph - N/A   Clear
5:15 AM 73.4 °F - 73.4 °F 100% 29.83 in 10.0 mi SSE 8.1 mph - N/A   Clear
5:35 AM 73.4 °F - 73.4 °F 100% 29.84 in 10.0 mi South 8.1 mph - N/A   Clear
5:50 AM 75.2 °F - 73.4 °F 94% 29.84 in 10.0 mi South 5.8 mph - N/A   Mostly Cloudy
5:55 AM 75.2 °F - 73.4 °F 94% 29.84 in 10.0 mi South 6.9 mph - N/A   Clear
6:15 AM 75.2 °F - 73.4 °F 94% 29.84 in 10.0 mi South 8.1 mph - N/A   Clear
6:35 AM 75.2 °F - 73.4 °F 94% 29.86 in 10.0 mi South 5.8 mph - N/A   Clear
6:50 AM 75.2 °F - 73.4 °F 94% 29.86 in 10.0 mi South 5.8 mph - N/A   Mostly Cloudy
7:25 AM 75.2 °F - 73.4 °F 94% 29.87 in 8.0 mi South 6.9 mph - N/A   Mostly Cloudy
7:50 AM 75.2 °F - 75.2 °F 100% 29.88 in 7.0 mi South 6.9 mph - N/A   Overcast
8:17 AM 77.0 °F - 75.2 °F 94% 29.89 in 7.0 mi South 9.2 mph - N/A   Mostly Cloudy
8:50 AM 77.0 °F - 75.2 °F 94% 29.91 in 10.0 mi South 6.9 mph - N/A   Mostly Cloudy
9:50 AM 80.6 °F 86.2 °F 75.2 °F 84% 29.93 in 10.0 mi South 10.4 mph 16.1 mph N/A   Mostly Cloudy
10:50 AM 80.6 °F 85.4 °F 73.4 °F 79% 29.94 in 10.0 mi South 11.5 mph 19.6 mph N/A   Overcast
11:50 AM 78.8 °F - 69.8 °F 74% 29.96 in 10.0 mi SSW 11.5 mph 19.6 mph N/A   Mostly Cloudy
12:50 PM 82.4 °F 87.2 °F 71.6 °F 70% 29.95 in 10.0 mi SSW 6.9 mph - N/A   Mostly Cloudy
1:52 PM 80.6 °F 85.4 °F 73.4 °F 79% 29.93 in 12.0 mi SW 5.8 mph - N/A   Mostly Cloudy
2:50 PM 78.8 °F - 73.4 °F 83% 29.92 in 15.0 mi West 8.1 mph - N/A   Mostly Cloudy
3:55 PM 84.2 °F 89.6 °F 71.6 °F 66% 29.91 in 15.0 mi WSW 6.9 mph - N/A   Mostly Cloudy
4:54 PM 82.4 °F 88.2 °F 73.4 °F 74% 29.91 in 12.0 mi SSW 5.8 mph - N/A   Mostly Cloudy
5:52 PM 82.4 °F 88.2 °F 73.4 °F 74% 29.92 in 12.0 mi Variable 4.6 mph - N/A   Mostly Cloudy
6:51 PM 78.8 °F - 75.2 °F 89% 29.94 in 12.0 mi SE 6.9 mph - N/A Rain Rain
7:58 PM 75.2 °F - 73.4 °F 94% 29.98 in 5.0 mi SE 11.5 mph - N/A Rain Light Rain
8:53 PM 73.4 °F - 73.4 °F 100% 29.99 in 5.0 mi SSE 9.2 mph - N/A   Overcast
9:53 PM 73.4 °F - 73.4 °F 100% 30.03 in 7.0 mi SE 5.8 mph - N/A   Overcast
10:55 PM 73.4 °F - 71.6 °F 94% 30.04 in 10.0 mi Calm Calm - N/A   Scattered Clouds